Wind_Speed
7 8 9 11 12 12 12 12 12 14 16 16 16 16 17 18 18 18 18 18 18 19 19 19 19 18 19 19 19 20 18 19 19 19 19 19 18 19 19 19 19 18 17 17
7 8 10 11 12 12 13 13 13 15 16 17 17 17 17 17 18 18 17 18 18 18 19 19 20 20 20 19 18 18 19 19 20 20 19 19 19 19 19 19 18 18 18 17
7 9 10 10 11 12 13 14 14 16 16 16 17 18 17 17 18 18 17 17 18 18 19 18 19 19 20 19 18 18 19 20 20 19 19 19 19 18 19 19 19 19 18 17
9 10 10 11 12 12 13 15 16 17 16 15 15 15 17 17 17 17 16 16 17 18 18 18 19 18 19 18 18 18 18 19 20 19 19 19 20 20 20 20 20 19 18 18
11 11 12 12 13 13 14 15 16 16 16 15 15 14 15 15 16 16 16 16 16 17 17 17 17 17 17 17 18 19 20 20 19 19 19 20 21 21 21 20 19 18 18 18
12 12 13 13 13 15 15 14 15 15 13 14 15 14 15 14 15 16 16 16 16 16 16 16 17 16 16 17 18 18 19 19 20 19 19 20 21 21 21 19 18 18 18 18
12 13 13 13 14 14 14 13 12 12 12 14 15 15 15 15 15 15 16 17 16 16 16 17 18 18 18 18 18 19 19 20 20 19 19 20 20 20 20 19 18 18 18 19
12 12 13 13 13 14 13 12 12 13 13 14 16 16 15 15 15 16 16 17 17 16 16 17 18 19 19 19 19 19 19 19 19 19 19 19 19 19 20 19 19 19 19 19
13 12 12 13 12 12 12 12 12 14 14 14 15 15 15 15 15 15 16 15 16 16 17 17 18 19 19 19 19 18 18 19 19 19 19 19 19 18 18 18 18 19 19 20
14 13 12 12 12 12 12 12 12 12 13 13 14 13 13 14 14 14 15 16 16 16 17 17 18 18 18 18 18 19 19 18 19 19 19 19 19 18 17 16 16 18 19 20
13 13 13 12 12 12 12 12 13 12 13 13 13 13 14 14 14 14 15 16 16 15 16 16 17 16 16 16 17 18 18 18 18 18 18 18 17 16 15 16 17 18 18 20
12 12 12 12 12 12 11 11 11 12 12 12 12 13 13 14 14 15 15 15 15 16 16 16 16 15 15 15 16 17 17 17 17 16 16 16 15 15 15 16 17 17 18 19
13 12 11 11 11 11 11 11 11 11 12 12 12 12 13 14 14 15 15 15 15 15 15 15 15 16 16 16 16 16 16 16 15 15 14 14 13 14 14 15 16 17 17 17
13 12 11 11 11 10 10 10 9 10 11 12 12 12 13 14 14 15 15 14 14 13 14 14 15 15 15 15 15 15 15 15 14 14 14 13 14 14 14 14 14 14 15 16
13 12 11 10 10 9 9 9 9 9 10 11 11 12 13 14 14 14 14 14 13 13 13 14 14 14 14 15 14 14 14 14 14 13 13 13 13 14 14 14 13 13 14 15
12 11 9 9 8 9 8 7 8 9 9 9 10 11 13 13 12 13 13 13 13 13 13 12 12 13 13 12 12 12 12 12 12 12 11 12 13 13 13 13 13 13 14 15
11 10 8 8 7 7 7 6 6 7 8 9 10 11 11 11 11 11 11 11 12 12 11 10 11 11 11 11 10 10 10 10 10 10 10 11 11 11 11 11 11 12 13 13
10 9 7 7 6 6 6 6 6 7 9 10 11 11 10 10 10 10 11 10 10 9 9 8 8 8 8 9 8 8 8 9 9 10 10 11 10 10 10 9 10 11 12 13
9 8 7 6 6 6 6 6 6 7 9 10 10 10 9 10 10 10 10 10 9 8 7 6 6 6 6 5 5 6 6 7 8 9 9 10 9 9 8 9 10 11 12 13
9 8 7 6 5 5 6 7 8 8 10 9 9 9 9 10 9 8 8 7 6 5 4 4 5 4 4 4 4 5 6 6 6 7 7 8 8 8 8 9 9 10 11 12
9 8 6 5 5 6 7 7 7 8 8 8 8 8 8 9 9 8 6 5 4 4 4 4 4 4 4 4 4 4 5 5 5 6 6 6 6 7 8 8 9 10 11 12
9 7 6 5 5 6 7 7 7 7 7 8 7 8 7 7 8 7 5 5 5 4 4 3 3 3 2 2 3 3 4 4 4 5 5 5 6 6 7 9 10 11 12 12
7 6 6 6 6 7 7 7 7 7 7 7 7 7 7 7 6 6 5 5 5 4 3 3 3 2 1 1 2 2 3 3 3 3 4 5 6 6 7 9 9 10 11 12
7 7 7 7 7 7 8 8 8 8 8 8 7 7 7 7 6 5 5 5 4 3 2 2 2 1 1 1 1 2 2 3 3 3 4 5 5 7 8 9 9 10 11 13
8 8 7 7 7 8 8 8 7 7 7 7 6 6 6 7 6 5 5 4 4 3 2 2 1 1 1 0 1 2 2 2 3 4 4 5 6 8 8 9 10 11 12 13
8 8 8 7 8 9 8 8 8 7 7 6 6 6 6 6 5 4 3 3 2 2 2 2 1 1 1 1 1 2 3 2 3 4 5 6 7 8 8 9 10 11 12 13
Wind_Direction
279 271 260 257 255 256 257 257 259 260 261 263 263 263 264 267 270 270 271 273 273 270 270 272 272 269 268 269 269 267 266 265 267 269 273 274 278 281 281 282 284 287 289 290
282 274 267 262 258 258 260 262 262 261 263 265 266 268 268 270 271 270 270 270 270 274 276 274 272 269 270 268 268 265 263 263 268 270 270 273 277 279 281 281 282 286 289 290
281 276 271 265 260 260 261 262 262 263 268 270 270 270 274 271 271 271 271 273 273 275 273 271 269 266 266 265 267 266 264 264 267 267 268 273 279 280 281 285 287 289 289 287
285 281 278 271 265 264 263 263 265 268 271 276 275 280 280 276 276 275 273 274 275 275 273 270 271 266 262 261 264 263 264 268 267 268 271 276 281 284 285 287 289 292 287 285
286 281 276 272 268 266 265 266 269 271 274 277 278 279 285 280 277 277 275 275 275 274 272 268 267 263 262 262 262 265 269 269 269 271 274 278 281 284 286 286 287 287 288 288
289 283 277 271 269 267 269 270 271 275 279 281 279 278 283 280 275 275 275 275 277 272 267 265 265 264 266 267 269 271 271 270 270 272 277 279 282 283 285 284 283 286 289 288
294 288 282 277 273 270 269 270 278 277 275 275 274 276 280 280 277 277 278 278 277 270 268 267 266 267 269 269 271 273 271 268 268 272 275 279 281 282 284 282 284 288 291 290
300 295 286 285 278 273 268 266 269 273 277 280 278 276 279 281 280 279 279 280 280 275 272 269 267 268 268 268 269 272 271 269 269 272 274 278 280 281 282 280 283 286 290 291
305 300 292 288 283 275 270 266 269 275 281 289 288 285 283 280 279 278 278 279 278 276 274 271 267 266 266 266 268 270 270 272 273 275 275 277 279 283 283 281 283 284 287 291
304 301 297 292 289 278 272 273 274 279 281 288 292 287 283 279 276 275 278 279 278 275 274 270 267 267 266 265 266 269 272 273 277 276 275 277 279 281 281 281 281 284 288 289
303 302 302 296 286 282 277 276 278 278 281 283 285 285 284 284 286 285 284 281 278 273 271 269 266 263 265 265 267 270 271 272 275 277 276 278 281 281 282 282 284 287 290 289
302 304 305 303 295 281 277 277 280 282 283 282 288 290 287 286 287 289 289 287 282 277 274 270 265 263 264 265 267 270 273 273 274 276 279 279 280 281 284 288 290 290 288 289
304 307 309 306 300 289 280 277 280 283 286 290 291 290 287 284 288 290 292 289 284 281 277 272 266 264 265 266 266 269 272 273 275 275 277 277 280 285 288 290 291 292 292 293
307 310 309 303 295 289 280 275 278 285 289 290 291 289 288 288 289 294 294 290 285 283 279 274 268 267 266 267 268 267 268 269 272 273 275 279 284 289 290 290 291 294 298 296
309 312 310 301 293 289 277 274 273 281 283 288 293 289 289 292 291 296 297 293 289 287 283 275 269 268 267 268 268 268 269 268 268 271 274 277 283 286 287 288 294 299 301 301
312 311 308 302 301 298 287 279 273 278 282 291 298 297 299 296 294 298 299 298 294 289 284 277 270 269 268 267 264 266 267 269 273 273 275 280 283 283 285 291 296 299 302 305
317 313 310 306 309 300 288 279 282 283 291 298 305 309 306 307 304 306 306 303 300 298 291 282 275 270 266 264 263 266 266 270 274 276 278 283 284 286 291 295 298 303 307 308
321 313 311 306 300 302 301 295 293 291 295 303 309 309 310 315 317 314 310 304 302 303 299 289 284 279 270 262 261 263 266 269 271 275 280 283 283 289 292 299 309 312 312 311
326 319 317 317 310 303 302 301 297 295 298 300 304 306 310 314 316 313 307 303 302 302 296 293 293 290 289 269 259 268 275 274 272 274 280 285 288 290 296 306 314 315 314 313
326 324 322 317 308 305 302 301 298 298 300 302 304 310 314 315 317 317 308 309 308 303 297 299 306 293 282 270 267 274 279 278 282 283 285 288 289 292 299 309 313 316 317 316
325 323 318 311 304 304 301 304 303 300 299 306 308 315 321 318 319 326 333 337 331 324 309 305 308 304 291 278 271 275 283 290 293 298 297 295 291 294 303 309 314 316 320 321
325 321 311 310 313 305 297 301 304 310 306 311 316 320 323 322 325 333 336 340 340 329 317 312 309 307 296 284 280 287 294 297 300 305 307 307 308 311 314 317 317 318 322 324
318 312 303 303 301 299 295 300 308 315 313 314 313 314 321 326 326 331 333 333 334 326 323 327 321 318 303 307 306 308 318 320 321 323 323 321 321 320 321 322 323 322 323 326
306 304 301 302 301 295 291 295 303 313 311 311 307 308 314 319 322 326 328 326 328 334 332 325 322 331 1 9 342 344 338 346 348 340 335 331 329 326 326 327 329 329 328 328
297 300 301 300 294 288 288 293 304 310 309 304 300 307 312 314 316 322 316 314 318 332 327 314 296 324 348 344 336 335 341 343 343 341 337 335 335 334 333 333 333 332 332 333
293 293 297 295 292 292 293 294 300 302 302 300 295 300 309 309 307 315 317 312 313 317 313 310 325 340 341 348 340 348 350 343 339 339 342 342 340 343 344 342 339 339 338 338
Height
5831 5832 5832 5832 5833 5833 5833 5834 5834 5835 5834 5834 5834 5835 5835 5835 5835 5835 5835 5835 5835 5835 5834 5834 5834 5833 5833 5833 5833 5832 5832 5832 5831 5831 5831 5830 5829 5828 5827 5826 5825 5824 5822 5821
5830 5830 5830 5829 5829 5830 5830 5831 5831 5831 5831 5831 5831 5831 5832 5831 5831 5830 5830 5830 5830 5830 5829 5829 5829 5829 5828 5828 5828 5828 5827 5827 5827 5827 5826 5825 5825 5824 5823 5822 5821 5819 5818 5817
5828 5828 5826 5826 5826 5827 5827 5828 5828 5828 5828 5827 5828 5828 5828 5827 5827 5826 5825 5825 5825 5825 5824 5824 5824 5823 5823 5824 5823 5823 5823 5823 5822 5822 5822 5821 5820 5819 5819 5817 5816 5815 5814 5813
5825 5824 5823 5823 5823 5823 5824 5824 5823 5823 5824 5825 5825 5825 5824 5823 5822 5822 5821 5821 5820 5820 5819 5819 5819 5818 5818 5819 5819 5818 5818 5818 5817 5817 5817 5816 5816 5815 5814 5813 5811 5810 5809 5808
5822 5821 5820 5820 5820 5819 5820 5820 5820 5819 5820 5821 5821 5821 5821 5819 5818 5817 5817 5816 5816 5815 5814 5814 5814 5814 5814 5814 5814 5814 5814 5813 5813 5812 5812 5812 5811 5810 5809 5808 5807 5806 5805 5804
5818 5817 5816 5816 5816 5815 5815 5816 5816 5816 5817 5818 5817 5818 5817 5815 5814 5813 5812 5812 5811 5811 5810 5810 5810 5810 5810 5810 5809 5809 5808 5808 5808 5808 5808 5807 5807 5806 5805 5803 5802 5802 5800 5799
5815 5814 5812 5812 5812 5812 5812 5813 5814 5815 5815 5815 5814 5813 5813 5810 5809 5809 5808 5807 5807 5806 5806 5806 5806 5806 5806 5805 5805 5804 5804 5804 5803 5803 5803 5803 5802 5801 5800 5799 5797 5797 5796 5794
5812 5812 5809 5808 5808 5807 5808 5809 5811 5811 5811 5810 5809 5808 5808 5806 5805 5804 5804 5803 5802 5802 5801 5801 5801 5801 5801 5801 5800 5800 5799 5799 5799 5798 5798 5798 5797 5796 5795 5794 5793 5792 5791 5790
5808 5807 5806 5805 5804 5804 5804 5805 5806 5806 5805 5805 5804 5804 5803 5801 5800 5800 5799 5799 5798 5797 5797 5796 5796 5796 5796 5796 5795 5795 5795 5794 5794 5794 5793 5793 5792 5791 5789 5789 5788 5787 5786 5784
5804 5803 5803 5801 5800 5800 5801 5801 5801 5801 5801 5801 5801 5800 5799 5797 5795 5794 5794 5793 5793 5792 5791 5791 5791 5791 5791 5791 5791 5790 5790 5790 5789 5789 5789 5788 5787 5786 5784 5784 5782 5782 5781 5779
5800 5800 5799 5798 5797 5797 5797 5797 5796 5796 5796 5796 5796 5798 5794 5792 5791 5790 5789 5788 5787 5787 5786 5786 5786 5786 5786 5786 5786 5786 5785 5785 5785 5785 5784 5783 5782 5781 5780 5779 5778 5777 5775 5774
5797 5796 5795 5795 5793 5792 5792 5792 5792 5793 5792 5791 5791 5794 5789 5788 5786 5785 5784 5783 5782 5782 5782 5781 5781 5781 5781 5782 5782 5781 5781 5781 5781 5780 5779 5778 5777 5776 5775 5774 5773 5772 5771 5769
5793 5793 5792 5792 5792 5790 5788 5788 5788 5788 5788 5788 5788 5790 5786 5784 5783 5782 5780 5779 5778 5777 5777 5777 5777 5777 5777 5777 5777 5777 5777 5777 5776 5776 5775 5774 5773 5772 5771 5770 5769 5767 5766 5764
5790 5789 5789 5789 5787 5786 5785 5785 5785 5785 5785 5784 5784 5783 5782 5780 5779 5778 5776 5775 5774 5773 5772 5772 5772 5772 5772 5773 5773 5773 5773 5773 5772 5772 5771 5771 5770 5769 5767 5766 5765 5763 5762 5760
5787 5786 5785 5784 5783 5782 5782 5781 5782 5782 5781 5781 5780 5779 5778 5776 5775 5774 5772 5771 5769 5768 5768 5767 5767 5768 5768 5768 5768 5768 5769 5769 5768 5768 5768 5767 5766 5765 5764 5763 5761 5760 5759 5756
5784 5783 5782 5781 5780 5779 5779 5779 5779 5779 5778 5778 5777 5776 5774 5773 5771 5770 5769 5767 5766 5765 5764 5763 5763 5764 5764 5764 5764 5765 5765 5765 5765 5764 5764 5763 5763 5762 5760 5759 5758 5757 5755 5753
5781 5780 5780 5779 5778 5778 5778 5777 5777 5777 5776 5775 5774 5774 5772 5770 5768 5767 5766 5764 5763 5762 5761 5760 5760 5760 5760 5760 5761 5761 5761 5761 5762 5762 5761 5760 5759 5758 5758 5756 5755 5754 5752 5750
5779 5778 5777 5777 5777 5776 5778 5775 5775 5775 5774 5773 5772 5770 5769 5767 5766 5764 5763 5762 5761 5759 5758 5758 5757 5757 5757 5757 5758 5758 5759 5759 5759 5759 5758 5757 5757 5756 5755 5753 5752 5751 5749 5747
5777 5776 5776 5775 5775 5775 5775 5774 5773 5773 5772 5771 5770 5769 5767 5766 5764 5763 5761 5759 5758 5758 5757 5756 5756 5755 5755 5755 5756 5756 5756 5756 5756 5756 5756 5755 5754 5753 5752 5751 5749 5748 5746 5744
5776 5775 5775 5774 5773 5773 5774 5772 5772 5772 5771 5769 5768 5767 5765 5764 5763 5762 5759 5757 5757 5756 5756 5755 5755 5754 5754 5754 5754 5755 5755 5754 5754 5754 5753 5753 5752 5751 5750 5749 5747 5745 5744 5741
5775 5774 5773 5772 5772 5771 5771 5770 5771 5771 5770 5767 5766 5765 5764 5762 5761 5760 5758 5757 5756 5755 5755 5755 5754 5753 5753 5753 5753 5753 5753 5753 5752 5752 5751 5751 5750 5749 5748 5747 5745 5743 5741 5739
5773 5772 5772 5771 5771 5772 5769 5769 5769 5768 5766 5765 5765 5764 5762 5761 5760 5759 5758 5757 5755 5755 5754 5754 5753 5752 5752 5752 5752 5752 5752 5751 5750 5750 5749 5749 5748 5747 5746 5745 5743 5741 5739 5736
5771 5771 5770 5770 5771 5769 5767 5767 5766 5765 5765 5764 5763 5762 5761 5760 5759 5758 5757 5756 5755 5754 5754 5753 5753 5752 5752 5752 5751 5751 5751 5750 5749 5749 5748 5747 5746 5745 5744 5743 5741 5739 5737 5734
5770 5769 5768 5768 5767 5766 5766 5765 5765 5764 5764 5763 5762 5761 5760 5759 5758 5757 5757 5756 5755 5754 5754 5754 5753 5752 5752 5751 5751 5751 5750 5749 5749 5748 5747 5746 5745 5744 5742 5741 5739 5737 5734 5731
5768 5767 5766 5766 5766 5765 5764 5763 5763 5763 5762 5761 5760 5760 5759 5758 5757 5756 5756 5755 5755 5754 5754 5754 5753 5753 5752 5752 5751 5751 5750 5749 5748 5747 5746 5745 5744 5742 5741 5739 5737 5734 5732 5729
5765 5764 5764 5764 5763 5762 5762 5761 5761 5761 5760 5760 5759 5758 5758 5757 5756 5755 5755 5755 5754 5754 5754 5754 5753 5752 5752 5751 5751 5750 5749 5749 5748 5747 5745 5744 5743 5741 5739 5737 5735 5733 5730 5727